301  
ASUS44 KOHX 192010  
RWROHX  
MIDDLE TENNESSEE HOURLY WEATHER ROUNDUP  
NATIONAL WEATHER SERVICE NASHVILLE TN  
300 PM CDT FRI APR 19 2019  
 
NOTE: "FAIR" INDICATES FEW OR NO CLOUDS BELOW 12,000 FEET WITH  
NO SIGNIFICANT WEATHER AND/OR S TO VISIBILITY
.  
 
* THESE REPORTS ARE NOT UNDER NWS QUALITY CONTROL AND MAY NOT  
REPORT WEATHER SUCH AS PRECIPITATION AND FOG.
 
 
 
TNZ005>011-023>034-057-059-062>066-078-080-192100   
..NORTHERN MIDDLE TENNESSEE
 
 
 
CITY SKY/WX TMP DP RH WIND PRES REMARKS
 
CLARKSVILLE LGT RAIN 45 41 86 NW12G22 29.59S FOG  
CROSSVILLE CLOUDY 54 51 90 W16 29.44S  
DICKSON MOSUNNY 45 43 93 N13G21 29.56F FOG  
GALLATIN MOCLDY 46 45 93 VRB7G18 29.56R FOG  
LEBANON CLOUDY 46 45 93 NW8G14 29.52R FOG  
LIVINGSTON FOG 48 48 100 N6 29.44S VSB 3/4  
NASHVILLE LGT RAIN 47 43 86 NW15G24 29.54F FOG  
PORTLAND PTSUNNY 46 45 93 N14G25 29.51S  
ROCKWOOD PTSUNNY 63 59 88 W8G16 29.39S  
SMYRNA LGT RAIN 48 46 93 NW20 29.53F  
SPARTA PTSUNNY 50 48 93 W6 29.48R FOG  
SPRINGFIELD PTSUNNY 45 45 100 NW9G20 29.54F FOG  
WEST NASHVILLE CLOUDY 45 43 93 NW8G15 29.55S FOG  

 
TNZ056-058-060-061-075>077-079-093>097-192100   
..SOUTHERN MIDDLE TENNESSEE
 
 
 
CITY SKY/WX TMP DP RH WIND PRES REMARKS
 
COLUMBIA CLOUDY 46 46 100 NW9G17 29.55F  
FAYETTEVILLE MOSUNNY 50 48 93 NW9 29.52F FOG  
LAWRENCEBURG PTSUNNY 46 45 93 NW12G18 29.56S FOG  
LEWISBURG PTSUNNY 48 45 87 N10G17 29.54S FOG  
MCMINNVILLE MOSUNNY 48 46 93 VRB6G15 29.50S FOG  
MURFREESBORO PTSUNNY 46 45 93 NW12G22 29.52S FOG  
PULASKI PTSUNNY 48 46 93 NW10G18 29.55S FOG  
SHELBYVILLE PTSUNNY 48 45 87 NW14G21 29.53R  
TULLAHOMA CLOUDY 48 46 93 NW15 29.50F  
WINCHESTER CLOUDY 52 48 87 N9 29.49S  

 
 
   
..KEY TO REMARKS
 
 
VSB - VISIBILITY IN MILES  
WCI - WIND CHILL INDEX  
HX - HEAT INDEX  
 
 
 
CLICK HERE TO GO TO PREVIOUS BULLETINS.

The Nexlab TN Page Main Text Page